Powrót do katalogu

STARLINK-3289

AktywnyŁącznośćVLEO
NORAD 50173·PAYLOAD·🇺🇸 United States

Wystrzelony Dec 18, 2021 z Vandenberg Space Force Base

Loading…

Następne Przeloty (najbliższe 24 godziny)

TLE

ŚwieżeSource: CelesTrak SupGP

Epoka: Sep 15, 2026, 01:53 UTC

1 50173C 21125T   26258.07895833  .00035273  00000+0  17633-2 0  2582
2 50173  53.2125 102.3519 0002532 118.9290 257.7175 15.16919415    16

Śledź STARLINK-3289 w czasie rzeczywistym z AllMySat

Download on the App Store